[keps] orb10308.2l.amsat

Ray Hoad ray.hoad at mypbmail.com
Thu Nov 4 18:58:12 PDT 2010


SB KEPS @ AMSAT  $ORB10308.N
2Line Orbital Elements 10308.AMSAT

HR AMSAT ORBITAL ELEMENTS FOR AMATEUR SATELLITES IN NASA FORMAT
FROM WA5QGD FORT WORTH,TX November 4, 2010
BID: ORB10308.N

DECODE 2-LINE ELSETS WITH THE FOLLOWING KEY:
1 AAAAAU 00  0  0 BBBBB.BBBBBBBB  .CCCCCCCC  00000-0  00000-0 0  DDDZ
2 AAAAA EEE.EEEE FFF.FFFF GGGGGGG HHH.HHHH III.IIII JJ.JJJJJJJJKKKKKZ
KEY: A-CATALOGNUM B-EPOCHTIME C-DECAY D-ELSETNUM E-INCLINATION F-RAAN
G-ECCENTRICITY H-ARGPERIGEE I-MNANOM J-MNMOTION K-ORBITNUM Z-CHECKSUM

TO ALL RADIO AMATEURS BT

AO-07
1 07530U 74089B   10307.94333968 -.00000027  00000-0  10000-3 0 09218
2 07530 101.3988 318.3720 0012117 001.3722 358.7376 12.53580035645969
FO-29
1 24278U 96046B   10307.94799780  .00000054  00000-0  87599-4 0 04325
2 24278 098.5192 117.8001 0351358 121.2420 242.3644 13.52954432702006
SO-33
1 25509U 98061B   10307.48736396  .00000050  00000-0 -34723-6 0  8284
2 25509 031.4300 080.7548 0353443 067.9334 295.8409 14.28335721627985
RS-22
1 27939U 03042A   10308.63011096  .00000090  00000-0  25984-4 0  6928
2 27939 097.8702 167.9987 0013357 340.5498 019.5204 14.63470938379492
VO-52
1 28650U 05017B   10308.58962580  .00000546  00000-0  75116-4 0  6388
2 28650 097.6746 356.4149 0026833 174.7435 185.4068 14.81842959297480
SO-67
1 35870U 09049F   10308.64760125  .00000816  00000-0  39658-4 0  2575
2 35870 097.3151 353.9407 0002797 358.1598 148.0533 15.21153176 62808
HO-68
1 36122U 09072B   10308.63512288 -.00000045  00000-0  00000 0 0  8177
2 36122 100.4520 007.5302 0007691 019.4330 340.7071 13.16282532 42694
UO-11
1 14781U 84021B   10307.65019712  .00000189  00000-0  32132-4 0 03838
2 14781 098.0395 359.6784 0009583 142.4891 217.7011 14.79852594432432
AO-16
1 20439U 90005D   10307.80697865  .00000049  00000-0  33733-4 0 00360
2 20439 098.3519 260.3476 0011828 110.2715 249.9747 14.31881338085364
LO-19
1 20442U 90005G   10307.64263469 -.00000022  00000-0  72975-5 0 09469
2 20442 098.3149 265.4324 0012956 106.3814 253.8797 14.32109960085515
AO-27
1 22825U 93061C   10307.81122630  .00000020  00000-0  24688-4 0 06689
2 22825 098.5012 252.2530 0007752 214.6314 145.4381 14.29314220891997
IO-26
1 22826U 93061D   10307.78162046  .00000044  00000-0  33878-4 0 04068
2 22826 098.4969 252.7760 0008442 208.6328 151.4396 14.29572362892103
GO-32
1 25397U 98043D   10307.79731601 -.00000098  00000-0 -25427-4 0 03251
2 25397 098.3175 307.5864 0001001 164.1068 196.0145 14.23188000639902
NO-44
1 26931U 01043C   10307.70447013  .00000042  00000-0  48812-4 0 05995
2 26931 067.0520 204.5099 0005719 271.8748 088.1696 14.29619086474695
SO-50
1 27607U 02058C   10307.93448200  .00000177  00000-0  49653-4 0 03101
2 27607 064.5583 292.0324 0045836 019.9234 340.3674 14.71597834422948
CO-55
1 27844U 03031E   10307.53910652  .00000090  00000-0  62044-4 0 09713
2 27844 098.7105 314.5232 0010219 125.4947 234.7185 14.20742323380876
CO-57
1 27848U 03031J   10307.51872373  .00000038  00000-0  37803-4 0  9180
2 27848 098.7157 313.6261 0010190 130.6543 229.5514 14.20531067380821
AO-51
1 28375U 04025K   10307.46858293  .00000058  00000-0  30002-4 0 08162
2 28375 098.0740 293.1280 0085074 034.9119 325.7611 14.40707087333564
GENESAT1
1 29655U 06058C   10216.61700559  .10637092  69904-5  33715-3 0  2265
2 29655 040.0059 067.3006 0005079 297.8744 064.7087 16.44862838207776
CP3
1 31129U 07012N   10307.59527776  .00000111  00000-0  35982-4 0  7144
2 31129 097.9259 339.6054 0102454 160.7695 199.7393 14.52326486188097
CO-65
1 32785U 08021C   10307.21104525  .00000378  00000-0  54510-4 0 08274
2 32785 097.8808 010.0963 0014410 188.6064 171.4897 14.81752404136079
KKS-1
1 33493U 09002B   10308.70987808  .00000602  00000-0  84214-4 0    62
2 33493 098.1013 069.5418 0020830 049.3044 310.9977 14.81178570 96289
SOHLA-1
1 33496U 09002E   10307.81494803  .00000071  00000-0  20295-4 0 02481
2 33496 098.0674 055.1576 0007507 115.3301 244.8696 14.69529411095389
TISAT-1
1 36799U 10035E   10308.73215025  .00000363  00000-0  54987-4 0  2813
2 36799 098.1326 009.4777 0014284 283.2117 076.7512 14.80216567 17109
STUDSAT
1 36801U 10035G   10307.75903331  .00001024  00000-0  14332-3 0 00904
2 36801 098.1361 008.3942 0013070 274.9228 085.0485 14.79766046016950
NOAA-10
1 16969U 86073A   10307.64414696 -.00000074  00000-0 -12478-4 0 02628
2 16969 098.6456 335.2233 0012479 161.2363 198.9281 14.27431908255477
NOAA-11
1 19531U 88089A   10307.68885548 -.00000229  00000-0 -95876-4 0 02701
2 19531 098.7655 034.3112 0012202 108.1863 252.0651 14.14939802140860
NOAA-12
1 21263U 91032A   10307.73473141  .00000055  00000-0  41918-4 0 07658
2 21263 098.7629 320.8636 0013164 119.2938 240.9551 14.25664037012280
MET-3/5
1 21655U 91056A   10307.96282645  .00000051  00000-0  10000-3 0 09577
2 21655 082.5584 209.8746 0013941 005.0232 355.0978 13.17023636924070
MET-2/21
1 22782U 93055A   10308.50734280  .00000109  00000-0  85194-4 0  9298
2 22782 082.5451 141.1374 0022843 012.7875 347.3873 13.83649879867484
OKEAN-4
1 23317U 94066A   10308.74595704  .00000327  00000-0  37207-4 0  3847
2 23317 082.5411 222.6525 0023140 135.1454 225.1654 14.82887409867283
NOAA-14
1 23455U 94089A   10307.70278095 -.00000022  00000-0  11543-4 0 02534
2 23455 098.8700 027.4100 0009044 195.5856 164.5050 14.13798679817218
NOAA-15
1 25338U 98030A   10307.82686143  .00000027  00000-0  30275-4 0 05817
2 25338 098.6343 292.3523 0011269 032.9335 327.2514 14.24863522648634
RESURS
1 25394U 98043A   10307.59256407  .00000007  00000-0  20736-4 0 06442
2 25394 098.3015 318.0628 0001405 132.5567 227.5730 14.24214129640194
FENGYUN1
1 25730U 99025A   10307.70362148  .00001087  00000-0  65895-3 0  1752
2 25730 098.7994 269.1108 0020184 232.5763 127.3569 14.08376328591320
OKEAN-0
1 25860U 99039A   10307.67802270  .00000102  00000-0  22953-4 0 01411
2 25860 097.8532 275.7823 0001437 052.8351 307.2979 14.73677657607441
NOAA-16
1 26536U 00055A   10307.62343890  .00000146  00000-0  10436-3 0 00571
2 26536 099.1644 328.3391 0009921 308.6555 051.3743 14.12583119521511
NOAA-17
1 27453U 02032A   10307.87524112  .00000235  00000-0  11990-3 0 00487
2 27453 098.4146 352.5697 0012747 089.1265 271.1363 14.24205844434585
NOAA-18
1 28654U 05018A   10307.88626590  .00000036  00000-0  44878-4 0 05387
2 28654 098.9663 253.8462 0014796 022.7260 337.4561 14.11404485281141
NOAA-19
1 33591U 09005A   10307.90475242  .00000176  00000-0  12200-3 0 07348
2 33591 098.8015 247.1345 0013292 253.4626 106.5116 14.11098430089610
HUBBLE
1 20580U 90037B   10307.67721778  .00000548  00000-0  29018-4 0  6718
2 20580 028.4691 049.1646 0003439 240.8916 119.1353 15.01080128925731
ISS
1 25544U 98067A   10309.02977303  .00023092  00000-0  17438-3 0  2146
2 25544 051.6457 229.9395 0008070 159.0373 288.5994 15.72316712685629
CO-58
1 28895U 05043F   10307.59235248  .00000094  00000-0  28942-4 0 07207
2 28895 097.9933 187.2894 0017546 204.4878 155.5462 14.59956374267320
FALCON
1 30776U 07006E   10307.97168439  .00000855  00000-0  63807-4 0 09563
2 30776 035.4342 275.4889 0001669 318.6285 041.4310 15.03922668201114
MAST
1 31126U 07012K   10307.61283828 -.00000044  00000-0  21145-6 0    25
2 31126 097.9236 342.3046 0094601 152.0250 208.6071 14.53635906188315
CAPE1
1 31130U 07012P   10308.55667062  .00000253  00000-0  68545-4 0   237
2 31130 097.9233 340.3368 0103336 158.1138 202.4527 14.52244845188034
COMPASS
1 32787U 08021E   10307.25974546  .00000190  00000-0  30552-4 0 08225
2 32787 097.8790 009.9932 0015086 188.9063 171.1875 14.82022366136099
AAUSAT2
1 32788U 08021F   10308.39666888  .00000345  00000-0  49863-4 0  8114
2 32788 097.8806 011.2738 0014996 185.5158 174.5888 14.82177080136270
DO-64
1 32789U 08021G   10307.71350816  .00000598  00000-0  81176-4 0 08305
2 32789 097.8876 011.2439 0015371 186.6219 173.4778 14.82401420136177
CO-66
1 32791U 08021J   10307.16786708  .00000496  00000-0  69400-4 0 08123
2 32791 097.8817 009.8988 0015686 188.1287 171.9653 14.81785421136033
RS-30
1 32953U 08025A   10308.50260998  .00000010  00000-0  00000 0 0  1899
2 32953 082.4994 302.4287 0019186 152.1720 208.0394 12.43008965111174
TACSAT-3
1 35001U 09028A   10308.79716831  .00006086  00000-0  13691-3 0  4237
2 35001 040.4537 088.5826 0023055 336.4433 023.5328 15.43409483 82354
PHARMSAT
1 35002U 09028B   10307.80436774  .00005264  00000-0  11759-3 0 04010
2 35002 040.4697 092.1613 0025567 332.0965 027.8473 15.43748049082227
HAWKSAT1
1 35003U 09028C   10308.52851415  .00014000  00000-0  25653-3 0  4302
2 35003 040.4597 077.5741 0023839 358.5588 001.5172 15.48652674 82453
CP6
1 35004U 09028D   10307.77999232  .00017016  00000-0  29468-3 0  4284
2 35004 040.4622 079.7812 0022705 357.9288 002.1425 15.50175253 82350
AEROCUB3
1 35005U 09028E   10307.71164106  .00108159  00000-0  95143-3 0 05163
2 35005 040.4645 066.0178 0023766 027.0258 333.1794 15.67251895082508
CASTOR
1 35694U 09038F   10230.44082147  .07179566  12689-4  99310-4 0  6559
2 35694 051.5930 222.0149 0004218 308.0851 053.0105 16.48877011 61107
METEOR-M
1 35865U 09049A   10308.59602498  .00000176  00000-0  10000-3 0  8047
2 35865 098.7405 001.2630 0002336 341.0760 019.0304 14.21832629 58670
RS-38
1 35869U 09049E   10308.62245197  .00000177  00000-0  10000-3 0  8179
2 35869 098.7403 001.3300 0004213 329.9413 030.1492 14.21992457 58682
/EX




More information about the Keps mailing list